Humidity-temperature Sensor

Selected Measurement Type: Air Temperature

 
Air Temperature [°C]     6 entries per hour
Showing data from 9/27/2022 (13:00:00 Z) to 9/26/2022 (00:01:00 Z)
Previous Next [ Day | 3-Days | 7-Days ]
First Last
Prev [ Day | 3-Days | 7-Days ] Next
First Last

Start Time:     :
End Time:     :     
Time (in GMT) :00 :50 :40 :30 :20 :10
Previous Next [ Day | 3-Days | 7-Days ]
First Last
Prev [ Day | 3-Days | 7-Days ] Next
First Last


123 => good data
MM => data is determined as missing
-- => data not received/configured
Back to Top Back to Top
9/27/2022 13:00 to 12:10 21.36 21.31 21.27 21.29 21.25 21.38
9/27/2022 12:00 to 11:10 21.29 21.33 21.30 21.41 21.31 21.27
9/27/2022 11:00 to 10:10 21.26 21.32 21.30 21.31 21.32 21.33
9/27/2022 10:00 to 9:10 21.36 21.36 21.36 21.41 21.39 21.41
9/27/2022 09:00 to 8:10 21.35 21.38 21.38 21.37 21.37 21.30
9/27/2022 08:00 to 7:10 21.37 21.39 21.40 21.40 21.44 21.45
9/27/2022 07:00 to 6:10 21.45 21.49 21.52 21.52 21.53 21.54
9/27/2022 06:00 to 5:10 21.57 21.58 21.57 21.59 21.62 21.62
9/27/2022 05:00 to 4:10 21.57 21.56 21.58 21.59 21.65 21.64
9/27/2022 04:00 to 3:10 21.56 21.53 21.58 21.59 21.57 21.45
9/27/2022 03:00 to 2:10 21.39 21.34 21.22 21.16 21.30 21.38
9/27/2022 02:00 to 1:10 21.45 21.68 21.54 21.67 21.69 21.82
9/27/2022 01:00 to 0:10 21.80 21.84 21.97 21.98 22.07 22.09
9/27/2022 00:00 to 23:10 22.04 22.02 21.98 21.99 21.87 21.91
9/26/2022 23:00 to 22:10 22.00 21.98 21.98 22.00 21.95 21.91
9/26/2022 22:00 to 21:10 21.86 21.88 21.82 21.86 21.84 21.76
9/26/2022 21:00 to 20:10 21.74 21.72 21.73 21.76 21.77 21.72
9/26/2022 20:00 to 19:10 21.62 21.68 21.67 21.63 21.69 21.63
9/26/2022 19:00 to 18:10 21.66 21.65 21.70 21.70 21.67 21.56
9/26/2022 18:00 to 17:10 21.51 21.59 21.66 21.62 21.61 21.61
9/26/2022 17:00 to 16:10 21.63 21.74 21.68 21.55 21.53 21.34
9/26/2022 16:00 to 15:10 21.27 21.22 21.40 21.89 21.95 22.07
9/26/2022 15:00 to 14:10 22.09 22.08 21.94 21.60 21.37 20.99
9/26/2022 14:00 to 13:10 21.13 21.24 21.18 21.23 21.11 21.04
9/26/2022 13:00 to 12:10 20.95 20.83 20.73 20.62 20.45 20.68
9/26/2022 12:00 to 11:10 20.77 21.36 21.33 21.24 21.30 21.18
9/26/2022 11:00 to 10:10 21.27 21.22 21.26 21.29 21.26 21.27
9/26/2022 10:00 to 9:10 21.31 21.26 21.26 21.23 21.21 21.18
9/26/2022 09:00 to 8:10 21.20 21.24 21.22 21.23 21.23 21.24
9/26/2022 08:00 to 7:10 21.28 21.36 21.37 21.41 21.42 21.45
9/26/2022 07:00 to 6:10 21.46 21.50 21.51 21.55 21.50 21.39
9/26/2022 06:00 to 5:10 21.39 21.37 21.40 21.42 21.41 21.38
9/26/2022 05:00 to 4:10 21.41 21.42 21.40 21.42 21.41 21.41
9/26/2022 04:00 to 3:10 21.41 21.40 21.37 21.38 21.42 21.59
9/26/2022 03:00 to 2:10 21.61 21.63 21.59 21.55 21.54 21.51
9/26/2022 02:00 to 1:10 21.54 21.65 21.59 21.49 21.43 21.65
9/26/2022 01:00 to 0:10 21.64 21.56 21.64 21.84 21.91 22.00